Time,TemperatureF,DewpointF,PressureIn,WindDirection,WindDirectionDegrees,WindSpeedMPH,WindSpeedGustMPH,Humidity,HourlyPrecipIn,Conditions,Clouds,dailyrainin,SoftwareType,DateUTC
2013-10-29 00:02:00,44.6,40.7,30.32,NNE,22,0.0,0.0,86,0.00,,,0.00,WUHU21623XXSP,2013-10-29 05:02:00,
2013-10-29 00:07:00,44.4,40.5,30.32,NNE,22,0.0,5.6,86,0.00,,,0.00,WUHU21623XXSP,2013-10-29 05:07:00,
2013-10-29 00:12:00,44.4,40.8,30.32,NE,45,0.0,5.6,87,0.00,,,0.00,WUHU21623XXSP,2013-10-29 05:12:00,
2013-10-29 00:17:00,44.2,40.6,30.32,NE,45,0.0,0.0,87,0.00,,,0.00,WUHU21623XXSP,2013-10-29 05:17:00,
2013-10-29 00:22:00,44.1,40.4,30.32,NE,45,0.0,0.0,87,0.00,,,0.00,WUHU21623XXSP,2013-10-29 05:22:00,
2013-10-29 00:27:00,43.9,40.3,30.32,NE,45,0.0,0.0,87,0.00,,,0.00,WUHU21623XXSP,2013-10-29 05:27:00,
2013-10-29 00:32:00,43.7,40.3,30.32,NE,45,3.4,3.4,87,0.00,,,0.00,WUHU21623XXSP,2013-10-29 05:32:00,
2013-10-29 00:37:00,43.7,40.1,30.32,NE,45,0.0,3.4,87,0.00,,,0.00,WUHU21623XXSP,2013-10-29 05:37:00,
2013-10-29 00:42:00,43.5,40.1,30.32,NE,45,0.0,0.0,87,0.00,,,0.00,WUHU21623XXSP,2013-10-29 05:42:00,
2013-10-29 00:47:00,43.5,39.9,30.32,NE,45,7.4,7.4,87,0.00,,,0.00,WUHU21623XXSP,2013-10-29 05:47:00,
2013-10-29 00:52:00,43.5,39.9,30.32,NE,45,1.8,7.4,87,0.00,,,0.00,WUHU21623XXSP,2013-10-29 05:52:00,
2013-10-29 00:57:00,43.5,39.9,30.32,NE,45,4.0,4.0,87,0.00,,,0.00,WUHU21623XXSP,2013-10-29 05:57:00,
2013-10-29 01:02:00,43.3,39.7,30.32,NE,45,0.0,4.0,87,0.00,,,0.00,WUHU21623XXSP,2013-10-29 06:02:00,
2013-10-29 01:07:00,43.2,39.5,30.32,ENE,67,0.0,4.0,87,0.00,,,0.00,WUHU21623XXSP,2013-10-29 06:07:00,
2013-10-29 01:12:00,43.0,39.4,30.32,ENE,67,0.0,2.0,87,0.00,,,0.00,WUHU21623XXSP,2013-10-29 06:12:00,
2013-10-29 01:17:00,43.0,39.4,30.32,NE,45,0.0,0.0,87,0.00,,,0.00,WUHU21623XXSP,2013-10-29 06:17:00,
2013-10-29 01:22:00,42.6,39.0,30.32,NE,45,4.3,4.3,87,0.00,,,0.00,WUHU21623XXSP,2013-10-29 06:22:00,
2013-10-29 01:27:00,42.6,39.0,30.32,NE,45,0.0,4.3,87,0.00,,,0.00,WUHU21623XXSP,2013-10-29 06:27:00,
2013-10-29 01:32:00,42.4,38.8,30.32,NE,45,4.9,4.9,87,0.00,,,0.00,WUHU21623XXSP,2013-10-29 06:32:00,
2013-10-29 01:37:00,42.4,38.8,30.32,NE,45,0.7,4.9,87,0.00,,,0.00,WUHU21623XXSP,2013-10-29 06:37:00,
2013-10-29 01:42:00,42.4,38.8,30.32,NE,45,0.0,4.9,87,0.00,,,0.00,WUHU21623XXSP,2013-10-29 06:42:00,
2013-10-29 01:47:00,42.1,38.5,30.32,NE,45,0.0,2.5,87,0.00,,,0.00,WUHU21623XXSP,2013-10-29 06:47:00,
2013-10-29 01:52:00,42.1,38.5,30.32,NE,45,0.0,0.0,87,0.00,,,0.00,WUHU21623XXSP,2013-10-29 06:52:00,
2013-10-29 01:57:00,41.9,38.6,30.32,NE,45,0.0,0.0,87,0.00,,,0.00,WUHU21623XXSP,2013-10-29 06:57:00,
2013-10-29 02:02:00,41.7,38.1,30.32,NE,45,0.0,0.0,87,0.00,,,0.00,WUHU21623XXSP,2013-10-29 07:02:00,
2013-10-29 02:07:00,41.5,37.9,30.32,NE,45,0.0,0.0,87,0.00,,,0.00,WUHU21623XXSP,2013-10-29 07:07:00,
2013-10-29 02:12:00,41.4,38.0,30.32,East,90,0.0,0.0,88,0.00,,,0.00,WUHU21623XXSP,2013-10-29 07:12:00,
2013-10-29 02:17:00,41.2,37.9,30.32,East,90,2.7,2.7,88,0.00,,,0.00,WUHU21623XXSP,2013-10-29 07:17:00,
2013-10-29 02:22:00,41.2,37.9,30.32,ENE,67,0.0,2.7,88,0.00,,,0.00,WUHU21623XXSP,2013-10-29 07:22:00,
2013-10-29 02:27:00,40.8,37.7,30.32,ESE,112,2.5,2.5,88,0.00,,,0.00,WUHU21623XXSP,2013-10-29 07:27:00,
2013-10-29 02:32:00,40.8,37.5,30.32,East,90,0.0,2.5,88,0.00,,,0.00,WUHU21623XXSP,2013-10-29 07:32:00,
2013-10-29 02:37:00,40.6,37.3,30.31,East,90,0.0,0.0,88,0.00,,,0.00,WUHU21623XXSP,2013-10-29 07:37:00,
2013-10-29 02:42:00,40.3,37.1,30.32,ENE,67,0.4,2.5,88,0.00,,,0.00,WUHU21623XXSP,2013-10-29 07:42:00,
2013-10-29 02:47:00,40.3,37.0,30.31,ENE,67,0.0,2.5,88,0.00,,,0.00,WUHU21623XXSP,2013-10-29 07:47:00,
2013-10-29 02:52:00,40.1,36.8,30.31,ENE,67,0.0,0.0,88,0.00,,,0.00,WUHU21623XXSP,2013-10-29 07:52:00,
2013-10-29 02:57:00,39.9,36.8,30.31,ENE,67,0.0,0.0,88,0.00,,,0.00,WUHU21623XXSP,2013-10-29 07:57:00,
2013-10-29 03:02:00,39.9,36.6,30.31,ENE,67,0.0,0.0,88,0.00,,,0.00,WUHU21623XXSP,2013-10-29 08:02:00,
2013-10-29 03:07:00,39.9,36.6,30.31,ENE,67,0.0,0.0,88,0.00,,,0.00,WUHU21623XXSP,2013-10-29 08:07:00,
2013-10-29 03:12:00,39.7,36.4,30.31,ENE,67,0.0,0.0,88,0.00,,,0.00,WUHU21623XXSP,2013-10-29 08:12:00,
2013-10-29 03:17:00,39.4,36.3,30.30,ENE,67,0.0,0.0,88,0.00,,,0.00,WUHU21623XXSP,2013-10-29 08:17:00,
2013-10-29 03:22:00,39.4,35.8,30.30,ENE,67,0.0,0.0,87,0.00,,,0.00,WUHU21623XXSP,2013-10-29 08:22:00,
2013-10-29 03:27:00,39.0,35.5,30.30,ENE,67,0.0,4.9,87,0.00,,,0.00,WUHU21623XXSP,2013-10-29 08:27:00,
2013-10-29 03:33:00,39.0,35.5,30.31,ENE,67,0.0,4.9,87,0.00,,,0.00,WUHU21623XXSP,2013-10-29 08:33:00,
2013-10-29 03:38:00,39.0,35.5,30.31,ENE,67,0.0,0.0,87,0.00,,,0.00,WUHU21623XXSP,2013-10-29 08:38:00,
2013-10-29 03:43:00,38.8,35.3,30.31,ENE,67,0.0,0.0,88,0.00,,,0.00,WUHU21623XXSP,2013-10-29 08:43:00,
2013-10-29 03:48:00,38.8,35.6,30.31,ENE,67,0.0,0.0,88,0.00,,,0.00,WUHU21623XXSP,2013-10-29 08:48:00,
2013-10-29 03:53:00,38.5,35.4,30.30,ENE,67,0.0,0.0,88,0.00,,,0.00,WUHU21623XXSP,2013-10-29 08:53:00,
2013-10-29 03:58:00,38.3,35.2,30.30,ENE,67,0.0,0.0,88,0.00,,,0.00,WUHU21623XXSP,2013-10-29 08:58:00,
2013-10-29 04:03:00,38.3,35.0,30.30,ENE,67,0.0,0.0,88,0.00,,,0.00,WUHU21623XXSP,2013-10-29 09:03:00,
2013-10-29 04:08:00,38.1,34.8,30.30,ENE,67,0.0,0.0,88,0.00,,,0.00,WUHU21623XXSP,2013-10-29 09:08:00,
2013-10-29 04:13:00,37.9,34.7,30.31,ENE,67,0.0,0.0,88,0.00,,,0.00,WUHU21623XXSP,2013-10-29 09:13:00,
2013-10-29 04:18:00,37.9,34.7,30.30,ENE,67,0.0,0.0,88,0.00,,,0.00,WUHU21623XXSP,2013-10-29 09:18:00,
2013-10-29 04:23:00,37.8,34.5,30.31,ENE,67,0.0,0.0,88,0.00,,,0.00,WUHU21623XXSP,2013-10-29 09:23:00,
2013-10-29 04:28:00,37.6,34.5,30.30,ENE,67,0.0,0.0,88,0.00,,,0.00,WUHU21623XXSP,2013-10-29 09:28:00,
2013-10-29 04:33:00,37.6,34.6,30.30,ENE,67,0.0,0.0,89,0.00,,,0.00,WUHU21623XXSP,2013-10-29 09:33:00,
2013-10-29 04:38:00,37.6,34.6,30.31,East,90,0.0,0.0,89,0.00,,,0.00,WUHU21623XXSP,2013-10-29 09:38:00,
2013-10-29 04:43:00,37.6,34.6,30.31,East,90,0.0,0.0,89,0.00,,,0.00,WUHU21623XXSP,2013-10-29 09:43:00,
2013-10-29 04:48:00,37.4,34.4,30.30,ESE,112,0.0,1.1,89,0.00,,,0.00,WUHU21623XXSP,2013-10-29 09:48:00,
2013-10-29 04:53:00,37.2,34.2,30.30,East,90,0.0,1.1,89,0.00,,,0.00,WUHU21623XXSP,2013-10-29 09:53:00,
2013-10-29 04:58:00,37.2,34.2,30.31,East,90,0.0,0.0,89,0.00,,,0.00,WUHU21623XXSP,2013-10-29 09:58:00,
2013-10-29 05:03:00,37.2,34.2,30.31,East,90,0.0,0.0,89,0.00,,,0.00,WUHU21623XXSP,2013-10-29 10:03:00,
2013-10-29 05:08:00,37.0,34.1,30.31,East,90,1.6,3.6,89,0.00,,,0.00,WUHU21623XXSP,2013-10-29 10:08:00,
2013-10-29 05:13:00,37.0,34.1,30.31,East,90,0.0,3.6,89,0.00,,,0.00,WUHU21623XXSP,2013-10-29 10:13:00,
2013-10-29 05:18:00,36.9,33.9,30.31,ENE,67,2.9,2.9,89,0.00,,,0.00,WUHU21623XXSP,2013-10-29 10:18:00,
2013-10-29 05:23:00,37.0,34.1,30.32,ENE,67,5.4,5.4,89,0.00,,,0.00,WUHU21623XXSP,2013-10-29 10:23:00,
2013-10-29 05:28:00,37.0,34.1,30.32,ENE,67,3.4,5.4,89,0.00,,,0.00,WUHU21623XXSP,2013-10-29 10:28:00,
2013-10-29 05:33:00,37.0,34.1,30.32,ENE,67,2.2,3.4,89,0.00,,,0.00,WUHU21623XXSP,2013-10-29 10:33:00,
2013-10-29 05:38:00,37.0,34.1,30.32,ENE,67,0.0,2.2,89,0.00,,,0.00,WUHU21623XXSP,2013-10-29 10:38:00,
2013-10-29 05:43:00,37.0,34.1,30.32,ENE,67,0.0,0.0,89,0.00,,,0.00,WUHU21623XXSP,2013-10-29 10:43:00,
2013-10-29 05:49:00,36.9,33.9,30.33,ENE,67,0.0,0.0,89,0.00,,,0.00,WUHU21623XXSP,2013-10-29 10:49:00,
2013-10-29 05:54:00,36.7,33.7,30.33,ENE,67,0.0,0.0,89,0.00,,,0.00,WUHU21623XXSP,2013-10-29 10:54:00,
2013-10-29 05:59:00,36.3,33.3,30.33,ENE,67,0.0,0.0,89,0.00,,,0.00,WUHU21623XXSP,2013-10-29 10:59:00,
2013-10-29 06:04:00,36.1,33.2,30.32,ENE,67,0.0,0.0,89,0.00,,,0.00,WUHU21623XXSP,2013-10-29 11:04:00,
2013-10-29 06:09:00,35.8,32.8,30.33,ENE,67,0.0,0.0,89,0.00,,,0.00,WUHU21623XXSP,2013-10-29 11:09:00,
2013-10-29 06:14:00,35.8,32.8,30.32,ENE,67,0.0,0.0,89,0.00,,,0.00,WUHU21623XXSP,2013-10-29 11:14:00,
2013-10-29 06:19:00,35.6,32.8,30.32,ENE,67,0.0,0.0,89,0.00,,,0.00,WUHU21623XXSP,2013-10-29 11:19:00,
2013-10-29 06:24:00,35.4,32.4,30.32,ENE,67,0.0,0.0,89,0.00,,,0.00,WUHU21623XXSP,2013-10-29 11:24:00,
2013-10-29 06:29:00,35.4,32.4,30.32,ENE,67,0.0,0.0,89,0.00,,,0.00,WUHU21623XXSP,2013-10-29 11:29:00,
2013-10-29 06:34:00,35.6,32.4,30.32,ENE,67,0.0,0.0,89,0.00,,,0.00,WUHU21623XXSP,2013-10-29 11:34:00,
2013-10-29 06:39:00,35.6,32.6,30.32,ENE,67,1.6,1.6,89,0.00,,,0.00,WUHU21623XXSP,2013-10-29 11:39:00,
2013-10-29 06:44:00,35.8,32.8,30.33,ENE,67,0.0,1.6,89,0.00,,,0.00,WUHU21623XXSP,2013-10-29 11:44:00,
2013-10-29 06:49:00,35.6,32.8,30.33,ENE,67,0.0,1.6,89,0.00,,,0.00,WUHU21623XXSP,2013-10-29 11:49:00,
2013-10-29 06:54:00,35.4,32.4,30.33,ENE,67,0.0,0.0,89,0.00,,,0.00,WUHU21623XXSP,2013-10-29 11:54:00,
2013-10-29 06:59:00,35.4,32.4,30.33,ENE,67,0.0,0.0,89,0.00,,,0.00,WUHU21623XXSP,2013-10-29 11:59:00,
2013-10-29 07:04:00,35.4,32.4,30.33,ENE,67,0.0,0.0,89,0.00,,,0.00,WUHU21623XXSP,2013-10-29 12:04:00,
2013-10-29 07:09:00,35.4,32.4,30.33,ENE,67,0.0,0.0,89,0.00,,,0.00,WUHU21623XXSP,2013-10-29 12:09:00,
2013-10-29 07:14:00,35.4,32.4,30.33,East,90,0.9,0.9,89,0.00,,,0.00,WUHU21623XXSP,2013-10-29 12:14:00,
2013-10-29 07:19:00,35.8,32.8,30.33,East,90,0.0,0.9,89,0.00,,,0.00,WUHU21623XXSP,2013-10-29 12:19:00,
2013-10-29 07:24:00,35.8,32.8,30.32,ESE,112,0.0,0.0,89,0.00,,,0.00,WUHU21623XXSP,2013-10-29 12:24:00,
2013-10-29 07:29:00,36.0,32.7,30.32,ESE,112,0.0,0.0,88,0.00,,,0.00,WUHU21623XXSP,2013-10-29 12:29:00,
2013-10-29 07:34:00,36.1,32.9,30.32,ESE,112,0.0,0.0,88,0.00,,,0.00,WUHU21623XXSP,2013-10-29 12:34:00,
2013-10-29 07:39:00,36.3,33.0,30.32,ESE,112,0.0,0.0,88,0.00,,,0.00,WUHU21623XXSP,2013-10-29 12:39:00,
2013-10-29 07:44:00,36.3,33.0,30.31,ESE,112,0.0,0.0,88,0.00,,,0.00,WUHU21623XXSP,2013-10-29 12:44:00,
2013-10-29 07:49:00,36.3,33.0,30.31,ESE,112,0.0,0.0,88,0.00,,,0.00,WUHU21623XXSP,2013-10-29 12:49:00,
2013-10-29 07:54:00,36.5,33.2,30.31,ESE,112,0.0,0.0,88,0.00,,,0.00,WUHU21623XXSP,2013-10-29 12:54:00,
2013-10-29 07:59:00,36.3,33.2,30.32,East,90,0.0,0.0,88,0.00,,,0.00,WUHU21623XXSP,2013-10-29 12:59:00,
2013-10-29 08:04:00,36.5,33.2,30.32,ENE,67,0.9,0.9,88,0.00,,,0.00,WUHU21623XXSP,2013-10-29 13:04:00,
2013-10-29 08:09:00,36.5,33.2,30.32,East,90,0.0,0.9,88,0.00,,,0.00,WUHU21623XXSP,2013-10-29 13:09:00,
2013-10-29 08:14:00,36.7,33.4,30.32,ESE,112,0.0,0.0,88,0.00,,,0.00,WUHU21623XXSP,2013-10-29 13:14:00,
2013-10-29 08:19:00,37.0,33.6,30.33,East,90,0.0,0.0,88,0.00,,,0.00,WUHU21623XXSP,2013-10-29 13:19:00,
2013-10-29 08:25:00,37.2,33.9,30.32,ESE,112,0.0,0.0,88,0.00,,,0.00,WUHU21623XXSP,2013-10-29 13:25:00,
2013-10-29 08:30:00,37.6,34.0,30.33,ENE,67,0.7,7.6,87,0.00,,,0.00,WUHU21623XXSP,2013-10-29 13:30:00,
2013-10-29 08:35:00,37.8,34.2,30.33,ENE,67,0.0,7.6,87,0.00,,,0.00,WUHU21623XXSP,2013-10-29 13:35:00,
2013-10-29 08:40:00,37.9,34.2,30.34,ESE,112,0.0,0.0,87,0.00,,,0.00,WUHU21623XXSP,2013-10-29 13:40:00,
2013-10-29 08:45:00,38.1,34.6,30.34,ESE,112,0.0,0.0,87,0.00,,,0.00,WUHU21623XXSP,2013-10-29 13:45:00,
2013-10-29 08:50:00,38.3,34.7,30.34,ESE,112,0.0,0.0,87,0.00,,,0.00,WUHU21623XXSP,2013-10-29 13:50:00,
2013-10-29 08:55:00,38.5,34.9,30.34,East,90,0.0,0.0,87,0.00,,,0.00,WUHU21623XXSP,2013-10-29 13:55:00,
2013-10-29 09:00:00,38.8,35.3,30.34,East,90,0.0,0.0,87,0.00,,,0.00,WUHU21623XXSP,2013-10-29 14:00:00,
2013-10-29 09:05:00,39.0,35.5,30.34,ESE,112,0.0,0.0,87,0.00,,,0.00,WUHU21623XXSP,2013-10-29 14:05:00,
2013-10-29 09:10:00,39.6,36.3,30.34,SE,135,5.1,5.1,88,0.00,,,0.00,WUHU21623XXSP,2013-10-29 14:10:00,
2013-10-29 09:15:00,39.9,36.6,30.34,East,90,4.3,6.3,88,0.00,,,0.00,WUHU21623XXSP,2013-10-29 14:15:00,
2013-10-29 09:20:00,40.1,36.6,30.33,SE,135,0.0,4.3,88,0.00,,,0.00,WUHU21623XXSP,2013-10-29 14:20:00,
2013-10-29 09:25:00,40.3,37.0,30.33,SE,135,0.0,0.0,88,0.00,,,0.00,WUHU21623XXSP,2013-10-29 14:25:00,
2013-10-29 09:30:00,40.6,37.3,30.33,ESE,112,1.1,3.8,88,0.00,,,0.00,WUHU21623XXSP,2013-10-29 14:30:00,
2013-10-29 09:35:00,40.8,37.5,30.33,ESE,112,2.2,3.8,88,0.00,,,0.00,WUHU21623XXSP,2013-10-29 14:35:00,
2013-10-29 09:40:00,41.2,38.2,30.33,SE,135,2.5,4.0,89,0.00,,,0.00,WUHU21623XXSP,2013-10-29 14:40:00,
2013-10-29 09:45:00,41.4,38.4,30.32,SE,135,6.5,6.5,89,0.00,,,0.00,WUHU21623XXSP,2013-10-29 14:45:00,
2013-10-29 09:50:00,41.5,38.5,30.32,ESE,112,0.0,6.5,89,0.00,,,0.00,WUHU21623XXSP,2013-10-29 14:50:00,
2013-10-29 09:55:00,41.7,38.7,30.32,SE,135,0.0,0.9,89,0.00,,,0.00,WUHU21623XXSP,2013-10-29 14:55:00,
2013-10-29 10:00:00,41.9,38.9,30.32,ESE,112,0.0,0.0,89,0.00,,,0.00,WUHU21623XXSP,2013-10-29 15:00:00,
2013-10-29 10:05:00,42.1,39.1,30.32,SSE,157,2.2,2.2,89,0.00,,,0.00,WUHU21623XXSP,2013-10-29 15:05:00,
2013-10-29 10:10:00,42.6,39.6,30.32,SE,135,1.6,2.2,89,0.00,,,0.00,WUHU21623XXSP,2013-10-29 15:10:00,
2013-10-29 10:15:00,43.0,39.6,30.32,SE,135,1.6,2.2,89,0.00,,,0.00,WUHU21623XXSP,2013-10-29 15:15:00,
2013-10-29 10:20:00,43.2,40.2,30.32,SE,135,2.9,2.9,89,0.00,,,0.00,WUHU21623XXSP,2013-10-29 15:20:00,
2013-10-29 10:25:00,43.3,39.8,30.32,ESE,112,4.0,4.0,88,0.00,,,0.00,WUHU21623XXSP,2013-10-29 15:25:00,
2013-10-29 10:30:00,43.3,40.0,30.32,SE,135,0.0,4.0,88,0.00,,,0.00,WUHU21623XXSP,2013-10-29 15:30:00,
2013-10-29 10:35:00,43.5,39.9,30.32,ESE,112,0.0,4.0,87,0.00,,,0.00,WUHU21623XXSP,2013-10-29 15:35:00,
2013-10-29 10:40:00,43.9,40.3,30.32,ESE,112,0.0,0.0,87,0.00,,,0.00,WUHU21623XXSP,2013-10-29 15:40:00,
2013-10-29 10:45:00,44.1,40.1,30.32,ESE,112,2.7,5.8,86,0.00,,,0.00,WUHU21623XXSP,2013-10-29 15:45:00,
2013-10-29 10:50:00,44.2,40.3,30.32,ESE,112,6.0,6.0,86,0.00,,,0.00,WUHU21623XXSP,2013-10-29 15:50:00,
2013-10-29 10:55:00,44.4,40.5,30.31,ESE,112,0.0,6.0,86,0.00,,,0.00,WUHU21623XXSP,2013-10-29 15:55:00,
2013-10-29 11:00:00,44.8,40.5,30.32,SE,135,0.0,2.9,85,0.00,,,0.00,WUHU21623XXSP,2013-10-29 16:00:00,
2013-10-29 11:05:00,45.0,40.7,30.32,ESE,112,0.0,0.0,85,0.00,,,0.00,WUHU21623XXSP,2013-10-29 16:05:00,
2013-10-29 11:10:00,45.3,40.9,30.31,ESE,112,0.0,2.0,85,0.00,,,0.00,WUHU21623XXSP,2013-10-29 16:10:00,
2013-10-29 11:15:00,45.5,41.1,30.31,SE,135,0.0,2.5,84,0.00,,,0.00,WUHU21623XXSP,2013-10-29 16:15:00,
2013-10-29 11:20:00,46.0,41.5,30.31,ESE,112,0.0,2.5,84,0.00,,,0.00,WUHU21623XXSP,2013-10-29 16:20:00,
2013-10-29 11:25:00,46.2,41.4,30.31,ESE,112,0.0,0.0,83,0.00,,,0.00,WUHU21623XXSP,2013-10-29 16:25:00,
2013-10-29 11:30:00,46.6,41.4,30.30,ESE,112,0.0,0.0,82,0.00,,,0.00,WUHU21623XXSP,2013-10-29 16:30:00,
2013-10-29 11:36:00,46.8,41.4,30.30,SE,135,3.6,3.6,82,0.00,,,0.00,WUHU21623XXSP,2013-10-29 16:36:00,
2013-10-29 11:40:00,46.8,41.6,30.30,SE,135,0.0,6.5,82,0.00,,,0.00,WUHU21623XXSP,2013-10-29 16:40:00,
2013-10-29 11:46:00,47.1,41.4,30.30,ESE,112,0.0,6.5,81,0.00,,,0.00,WUHU21623XXSP,2013-10-29 16:46:00,
2013-10-29 11:51:00,47.3,41.3,30.30,SE,135,0.0,0.0,80,0.00,,,0.00,WUHU21623XXSP,2013-10-29 16:51:00,
2013-10-29 11:56:00,47.8,41.6,30.30,SE,135,0.0,0.0,80,0.00,,,0.00,WUHU21623XXSP,2013-10-29 16:56:00,
2013-10-29 12:01:00,47.8,41.6,30.29,East,90,0.0,0.0,79,0.00,,,0.00,WUHU21623XXSP,2013-10-29 17:01:00,
2013-10-29 12:06:00,48.0,41.8,30.29,ESE,112,0.0,1.6,79,0.00,,,0.00,WUHU21623XXSP,2013-10-29 17:06:00,
2013-10-29 12:11:00,48.2,41.9,30.29,SE,135,4.3,4.3,79,0.00,,,0.00,WUHU21623XXSP,2013-10-29 17:11:00,
2013-10-29 12:16:00,48.4,41.8,30.28,East,90,2.9,4.3,78,0.00,,,0.00,WUHU21623XXSP,2013-10-29 17:16:00,
2013-10-29 12:21:00,48.7,41.8,30.28,ESE,112,0.0,6.5,77,0.00,,,0.00,WUHU21623XXSP,2013-10-29 17:21:00,
2013-10-29 12:26:00,49.1,42.1,30.27,ESE,112,2.0,6.5,77,0.00,,,0.00,WUHU21623XXSP,2013-10-29 17:26:00,
2013-10-29 12:31:00,49.3,42.0,30.27,ESE,112,0.0,3.4,76,0.00,,,0.00,WUHU21623XXSP,2013-10-29 17:31:00,
2013-10-29 12:36:00,49.8,42.0,30.27,ESE,112,0.0,3.4,75,0.00,,,0.00,WUHU21623XXSP,2013-10-29 17:36:00,
2013-10-29 12:41:00,49.8,41.8,30.27,SE,135,0.0,0.0,74,0.00,,,0.00,WUHU21623XXSP,2013-10-29 17:41:00,
2013-10-29 12:46:00,50.2,42.2,30.26,SE,135,0.0,0.0,74,0.00,,,0.00,WUHU21623XXSP,2013-10-29 17:46:00,
2013-10-29 12:51:00,50.4,42.4,30.26,SE,135,5.1,5.1,74,0.00,,,0.00,WUHU21623XXSP,2013-10-29 17:51:00,
2013-10-29 12:56:00,50.7,42.7,30.26,ESE,112,0.0,5.1,73,0.00,,,0.00,WUHU21623XXSP,2013-10-29 17:56:00,
2013-10-29 13:01:00,50.9,42.6,30.25,SE,135,0.0,0.0,73,0.00,,,0.00,WUHU21623XXSP,2013-10-29 18:01:00,
2013-10-29 13:06:00,51.4,42.8,30.25,ESE,112,0.0,0.0,72,0.00,,,0.00,WUHU21623XXSP,2013-10-29 18:06:00,
2013-10-29 13:11:00,51.6,42.6,30.24,ESE,112,4.9,4.9,71,0.00,,,0.00,WUHU21623XXSP,2013-10-29 18:11:00,
2013-10-29 13:16:00,52.0,42.9,30.24,ESE,112,0.0,4.9,71,0.00,,,0.00,WUHU21623XXSP,2013-10-29 18:16:00,
2013-10-29 13:21:00,52.2,42.8,30.24,ESE,112,0.0,0.0,70,0.00,,,0.00,WUHU21623XXSP,2013-10-29 18:21:00,
2013-10-29 13:26:00,52.3,42.9,30.24,SE,135,1.1,1.1,70,0.00,,,0.00,WUHU21623XXSP,2013-10-29 18:26:00,
2013-10-29 13:31:00,52.7,42.8,30.24,SE,135,6.3,6.3,69,0.00,,,0.00,WUHU21623XXSP,2013-10-29 18:31:00,
2013-10-29 13:36:00,53.2,43.3,30.24,SE,135,0.0,6.3,69,0.00,,,0.00,WUHU21623XXSP,2013-10-29 18:36:00,
2013-10-29 13:41:00,53.4,43.1,30.23,ESE,112,5.1,5.1,68,0.00,,,0.00,WUHU21623XXSP,2013-10-29 18:41:00,
2013-10-29 13:46:00,53.8,43.0,30.23,SE,135,2.9,5.1,67,0.00,,,0.00,WUHU21623XXSP,2013-10-29 18:46:00,
2013-10-29 13:51:00,54.1,43.4,30.23,SSE,157,0.0,3.6,67,0.00,,,0.00,WUHU21623XXSP,2013-10-29 18:51:00,
2013-10-29 13:56:00,54.3,43.2,30.23,SE,135,0.0,4.3,66,0.00,,,0.00,WUHU21623XXSP,2013-10-29 18:56:00,
2013-10-29 14:01:00,54.7,43.1,30.23,SE,135,2.9,4.3,65,0.00,,,0.00,WUHU21623XXSP,2013-10-29 19:01:00,
2013-10-29 14:06:00,55.2,43.2,30.23,SE,135,5.4,5.4,64,0.00,,,0.00,WUHU21623XXSP,2013-10-29 19:06:00,
2013-10-29 14:11:00,55.8,43.5,30.23,SE,135,0.4,5.4,64,0.00,,,0.00,WUHU21623XXSP,2013-10-29 19:11:00,
2013-10-29 14:16:00,56.5,44.2,30.22,SE,135,0.0,0.4,64,0.00,,,0.00,WUHU21623XXSP,2013-10-29 19:16:00,
2013-10-29 14:22:00,56.8,44.0,30.22,SSE,157,6.0,6.0,62,0.00,,,0.00,WUHU21623XXSP,2013-10-29 19:22:00,
2013-10-29 14:27:00,57.0,44.1,30.21,ESE,112,0.0,6.0,62,0.00,,,0.00,WUHU21623XXSP,2013-10-29 19:27:00,
2013-10-29 14:32:00,57.4,43.7,30.21,ESE,112,2.9,3.1,60,0.00,,,0.00,WUHU21623XXSP,2013-10-29 19:32:00,
2013-10-29 14:37:00,57.7,44.0,30.21,SE,135,0.0,3.1,60,0.00,,,0.00,WUHU21623XXSP,2013-10-29 19:37:00,
2013-10-29 14:42:00,57.9,44.2,30.21,ESE,112,0.0,2.0,60,0.00,,,0.00,WUHU21623XXSP,2013-10-29 19:42:00,
2013-10-29 14:47:00,58.6,44.5,30.20,WSW,247,0.0,0.2,59,0.00,,,0.00,WUHU21623XXSP,2013-10-29 19:47:00,
2013-10-29 14:52:00,58.8,44.0,30.20,SSE,157,8.9,8.9,58,0.00,,,0.00,WUHU21623XXSP,2013-10-29 19:52:00,
2013-10-29 14:57:00,58.8,44.0,30.20,SE,135,1.3,8.9,58,0.00,,,0.00,WUHU21623XXSP,2013-10-29 19:57:00,
2013-10-29 15:02:00,58.8,43.6,30.20,SE,135,0.0,11.6,57,0.00,,,0.00,WUHU21623XXSP,2013-10-29 20:02:00,
2013-10-29 15:07:00,58.8,43.6,30.20,ESE,112,2.5,11.6,57,0.00,,,0.00,WUHU21623XXSP,2013-10-29 20:07:00,
2013-10-29 15:12:00,58.8,43.1,30.19,SSE,157,5.8,8.1,56,0.00,,,0.00,WUHU21623XXSP,2013-10-29 20:12:00,
2013-10-29 15:17:00,58.8,43.1,30.19,SE,135,6.0,6.0,56,0.00,,,0.00,WUHU21623XXSP,2013-10-29 20:17:00,
2013-10-29 15:22:00,58.8,42.6,30.19,SSE,157,0.0,6.0,55,0.00,,,0.00,WUHU21623XXSP,2013-10-29 20:22:00,
2013-10-29 15:27:00,58.6,42.5,30.19,ESE,112,2.5,6.0,55,0.00,,,0.00,WUHU21623XXSP,2013-10-29 20:27:00,
2013-10-29 15:32:00,58.6,42.5,30.18,SE,135,4.9,4.9,55,0.00,,,0.00,WUHU21623XXSP,2013-10-29 20:32:00,
2013-10-29 15:37:00,58.8,42.6,30.19,SE,135,0.0,4.9,55,0.00,,,0.00,WUHU21623XXSP,2013-10-29 20:37:00,
2013-10-29 15:42:00,58.8,42.6,30.18,ESE,112,0.0,4.9,55,0.00,,,0.00,WUHU21623XXSP,2013-10-29 20:42:00,
2013-10-29 15:47:00,58.8,42.2,30.19,SSE,157,3.4,3.4,54,0.00,,,0.00,WUHU21623XXSP,2013-10-29 20:47:00,
2013-10-29 15:52:00,58.8,42.2,30.19,SE,135,5.8,5.8,54,0.00,,,0.00,WUHU21623XXSP,2013-10-29 20:52:00,
2013-10-29 15:57:00,58.8,42.2,30.19,SE,135,2.2,5.8,54,0.00,,,0.00,WUHU21623XXSP,2013-10-29 20:57:00,
2013-10-29 16:02:00,58.8,42.2,30.19,SSE,157,6.3,6.3,54,0.00,,,0.00,WUHU21623XXSP,2013-10-29 21:02:00,
2013-10-29 16:07:00,58.6,42.0,30.18,SSE,157,1.8,6.3,54,0.00,,,0.00,WUHU21623XXSP,2013-10-29 21:07:00,
2013-10-29 16:12:00,58.6,42.0,30.18,SSE,157,0.0,1.8,55,0.00,,,0.00,WUHU21623XXSP,2013-10-29 21:12:00,
2013-10-29 16:17:00,58.1,42.0,30.18,SSE,157,0.0,0.0,55,0.00,,,0.00,WUHU21623XXSP,2013-10-29 21:17:00,
2013-10-29 16:22:00,57.7,41.7,30.18,SSE,157,1.6,6.9,55,0.00,,,0.00,WUHU21623XXSP,2013-10-29 21:22:00,
2013-10-29 16:27:00,57.7,42.1,30.18,SE,135,0.0,6.9,56,0.00,,,0.00,WUHU21623XXSP,2013-10-29 21:27:00,
2013-10-29 16:32:00,57.4,41.8,30.18,SSE,157,0.0,0.0,56,0.00,,,0.00,WUHU21623XXSP,2013-10-29 21:32:00,
2013-10-29 16:37:00,57.0,41.9,30.18,SSE,157,0.0,0.0,57,0.00,,,0.00,WUHU21623XXSP,2013-10-29 21:37:00,
2013-10-29 16:42:00,56.8,42.2,30.18,SE,135,0.0,0.0,58,0.00,,,0.00,WUHU21623XXSP,2013-10-29 21:42:00,
2013-10-29 16:47:00,56.8,42.2,30.17,SE,135,4.3,4.3,58,0.00,,,0.00,WUHU21623XXSP,2013-10-29 21:47:00,
2013-10-29 16:52:00,56.5,42.3,30.17,SE,135,6.3,6.3,59,0.00,,,0.00,WUHU21623XXSP,2013-10-29 21:52:00,
2013-10-29 16:57:00,56.5,42.3,30.17,SE,135,4.7,6.3,59,0.00,,,0.00,WUHU21623XXSP,2013-10-29 21:57:00,
2013-10-29 17:02:00,56.3,42.2,30.17,SE,135,0.0,6.3,59,0.00,,,0.00,WUHU21623XXSP,2013-10-29 22:02:00,
2013-10-29 17:07:00,56.1,42.4,30.16,SE,135,0.0,0.0,60,0.00,,,0.00,WUHU21623XXSP,2013-10-29 22:07:00,
2013-10-29 17:12:00,55.9,42.7,30.16,SE,135,0.0,0.0,61,0.00,,,0.00,WUHU21623XXSP,2013-10-29 22:12:00,
2013-10-29 17:17:00,55.8,42.5,30.16,SSE,157,0.0,0.0,61,0.00,,,0.00,WUHU21623XXSP,2013-10-29 22:17:00,
2013-10-29 17:22:00,55.6,42.7,30.16,SE,135,0.0,0.0,62,0.00,,,0.00,WUHU21623XXSP,2013-10-29 22:22:00,
2013-10-29 17:27:00,55.2,42.7,30.17,SE,135,0.0,0.0,62,0.00,,,0.00,WUHU21623XXSP,2013-10-29 22:27:00,
2013-10-29 17:32:00,55.2,42.8,30.17,SE,135,0.0,0.0,63,0.00,,,0.00,WUHU21623XXSP,2013-10-29 22:32:00,
2013-10-29 17:37:00,55.2,42.8,30.17,SE,135,0.0,0.0,63,0.00,,,0.00,WUHU21623XXSP,2013-10-29 22:37:00,
2013-10-29 17:42:00,55.0,42.6,30.18,SE,135,0.0,0.0,63,0.00,,,0.00,WUHU21623XXSP,2013-10-29 22:42:00,
2013-10-29 17:47:00,54.9,42.5,30.17,SE,135,0.0,0.0,63,0.00,,,0.00,WUHU21623XXSP,2013-10-29 22:47:00,
2013-10-29 17:52:00,54.7,42.7,30.17,SE,135,0.0,0.0,64,0.00,,,0.00,WUHU21623XXSP,2013-10-29 22:52:00,
2013-10-29 17:57:00,54.7,42.7,30.17,SE,135,0.0,0.0,64,0.00,,,0.00,WUHU21623XXSP,2013-10-29 22:57:00,
2013-10-29 18:02:00,54.5,42.7,30.17,SE,135,0.0,0.0,64,0.00,,,0.00,WUHU21623XXSP,2013-10-29 23:02:00,
2013-10-29 18:07:00,54.5,42.9,30.17,SE,135,0.0,0.0,65,0.00,,,0.00,WUHU21623XXSP,2013-10-29 23:07:00,
2013-10-29 18:12:00,54.3,43.2,30.17,SE,135,0.0,0.0,66,0.00,,,0.00,WUHU21623XXSP,2013-10-29 23:12:00,
2013-10-29 18:17:00,54.1,43.6,30.17,SE,135,0.0,0.0,67,0.00,,,0.00,WUHU21623XXSP,2013-10-29 23:17:00,
2013-10-29 18:22:00,54.0,43.6,30.17,SE,135,0.0,0.0,68,0.00,,,0.00,WUHU21623XXSP,2013-10-29 23:22:00,
2013-10-29 18:27:00,53.4,43.8,30.18,SE,135,0.0,0.0,69,0.00,,,0.00,WUHU21623XXSP,2013-10-29 23:27:00,
2013-10-29 18:32:00,53.4,43.9,30.17,SE,135,0.0,0.0,70,0.00,,,0.00,WUHU21623XXSP,2013-10-29 23:32:00,
2013-10-29 18:37:00,52.9,43.8,30.17,SE,135,0.0,0.0,71,0.00,,,0.00,WUHU21623XXSP,2013-10-29 23:37:00,
2013-10-29 18:42:00,52.5,43.8,30.18,SSE,157,0.0,0.0,72,0.00,,,0.00,WUHU21623XXSP,2013-10-29 23:42:00,
2013-10-29 18:47:00,52.3,44.0,30.18,SSE,157,0.0,0.0,73,0.00,,,0.00,WUHU21623XXSP,2013-10-29 23:47:00,
2013-10-29 18:52:00,52.3,44.0,30.18,SSE,157,0.0,0.0,73,0.00,,,0.00,WUHU21623XXSP,2013-10-29 23:52:00,
2013-10-29 18:57:00,51.8,44.3,30.18,SSE,157,0.0,0.0,75,0.00,,,0.00,WUHU21623XXSP,2013-10-29 23:57:00,
2013-10-29 19:02:00,51.6,44.0,30.18,SSE,157,0.0,0.0,75,0.00,,,0.00,WUHU21623XXSP,2013-10-30 00:02:00,
2013-10-29 19:07:00,51.6,44.3,30.18,SSE,157,0.0,0.0,76,0.00,,,0.00,WUHU21623XXSP,2013-10-30 00:07:00,
2013-10-29 19:12:00,51.3,44.3,30.18,SSE,157,0.0,0.0,77,0.00,,,0.00,WUHU21623XXSP,2013-10-30 00:12:00,
2013-10-29 19:17:00,50.9,44.3,30.18,SSE,157,0.0,0.0,78,0.00,,,0.00,WUHU21623XXSP,2013-10-30 00:17:00,
2013-10-29 19:22:00,50.7,44.4,30.18,SSE,157,0.0,0.0,79,0.00,,,0.00,WUHU21623XXSP,2013-10-30 00:22:00,
2013-10-29 19:27:00,50.7,44.4,30.18,SSE,157,0.0,0.0,80,0.00,,,0.00,WUHU21623XXSP,2013-10-30 00:27:00,
2013-10-29 19:32:00,50.7,44.8,30.18,SSE,157,0.0,0.0,80,0.00,,,0.00,WUHU21623XXSP,2013-10-30 00:32:00,
2013-10-29 19:37:00,50.7,45.1,30.18,SSE,157,0.0,0.0,81,0.00,,,0.00,WUHU21623XXSP,2013-10-30 00:37:00,
2013-10-29 19:42:00,50.7,45.1,30.19,SE,135,0.0,0.0,81,0.00,,,0.00,WUHU21623XXSP,2013-10-30 00:42:00,
2013-10-29 19:47:00,50.7,45.1,30.19,SE,135,0.0,0.0,81,0.00,,,0.00,WUHU21623XXSP,2013-10-30 00:47:00,
2013-10-29 19:52:00,50.5,44.9,30.19,SE,135,0.0,0.0,81,0.00,,,0.00,WUHU21623XXSP,2013-10-30 00:52:00,
2013-10-29 19:57:00,50.5,44.9,30.18,SE,135,0.0,0.0,81,0.00,,,0.00,WUHU21623XXSP,2013-10-30 00:57:00,
2013-10-29 20:02:00,50.4,45.0,30.18,SE,135,0.0,0.0,82,0.00,,,0.00,WUHU21623XXSP,2013-10-30 01:02:00,
2013-10-29 20:07:00,50.2,44.9,30.18,SE,135,0.0,0.0,82,0.00,,,0.00,WUHU21623XXSP,2013-10-30 01:07:00,
2013-10-29 20:12:00,50.2,44.9,30.17,SE,135,0.0,0.0,82,0.00,,,0.00,WUHU21623XXSP,2013-10-30 01:12:00,
2013-10-29 20:18:00,50.0,44.7,30.17,SE,135,0.0,0.0,82,0.00,,,0.00,WUHU21623XXSP,2013-10-30 01:18:00,
2013-10-29 20:23:00,49.8,44.5,30.16,SSE,157,0.0,0.0,82,0.00,,,0.00,WUHU21623XXSP,2013-10-30 01:23:00,
2013-10-29 20:28:00,49.8,44.5,30.16,SE,135,0.0,0.0,82,0.00,,,0.00,WUHU21623XXSP,2013-10-30 01:28:00,
2013-10-29 20:33:00,49.8,44.8,30.16,SE,135,0.0,0.0,83,0.00,,,0.00,WUHU21623XXSP,2013-10-30 01:33:00,
2013-10-29 20:38:00,49.8,44.8,30.17,SE,135,0.0,0.0,83,0.00,,,0.00,WUHU21623XXSP,2013-10-30 01:38:00,
2013-10-29 20:43:00,49.6,44.6,30.17,SE,135,0.0,0.0,83,0.00,,,0.00,WUHU21623XXSP,2013-10-30 01:43:00,
2013-10-29 20:48:00,49.6,44.6,30.17,SE,135,0.0,0.0,83,0.00,,,0.00,WUHU21623XXSP,2013-10-30 01:48:00,
2013-10-29 20:53:00,49.6,44.9,30.17,SSE,157,0.0,0.0,84,0.00,,,0.00,WUHU21623XXSP,2013-10-30 01:53:00,
2013-10-29 20:58:00,49.5,44.8,30.17,SSE,157,0.0,0.0,84,0.00,,,0.00,WUHU21623XXSP,2013-10-30 01:58:00,
2013-10-29 21:03:00,49.5,44.8,30.16,SSE,157,1.8,1.8,84,0.00,,,0.00,WUHU21623XXSP,2013-10-30 02:03:00,
2013-10-29 21:08:00,49.3,44.9,30.16,SSE,157,0.0,1.8,85,0.00,,,0.00,WUHU21623XXSP,2013-10-30 02:08:00,
2013-10-29 21:13:00,49.3,44.9,30.17,SSE,157,0.0,0.0,85,0.00,,,0.00,WUHU21623XXSP,2013-10-30 02:13:00,
2013-10-29 21:18:00,49.3,44.9,30.17,SSE,157,0.0,0.0,85,0.00,,,0.00,WUHU21623XXSP,2013-10-30 02:18:00,
2013-10-29 21:23:00,49.3,44.9,30.16,SSE,157,0.0,0.0,85,0.00,,,0.00,WUHU21623XXSP,2013-10-30 02:23:00,
2013-10-29 21:28:00,49.5,44.9,30.17,SSE,157,0.0,0.0,85,0.00,,,0.00,WUHU21623XXSP,2013-10-30 02:28:00,
2013-10-29 21:33:00,49.3,44.9,30.17,SSE,157,0.0,0.0,85,0.00,,,0.00,WUHU21623XXSP,2013-10-30 02:33:00,
2013-10-29 21:38:00,49.5,45.1,30.16,SSE,157,0.0,6.0,85,0.00,,,0.00,WUHU21623XXSP,2013-10-30 02:38:00,
2013-10-29 21:43:00,49.3,44.9,30.16,SSE,157,0.0,6.0,85,0.00,,,0.00,WUHU21623XXSP,2013-10-30 02:43:00,
2013-10-29 21:48:00,49.5,45.4,30.17,SE,135,0.0,0.0,86,0.00,,,0.00,WUHU21623XXSP,2013-10-30 02:48:00,
2013-10-29 21:53:00,49.3,45.2,30.17,SSE,157,0.0,2.2,86,0.00,,,0.00,WUHU21623XXSP,2013-10-30 02:53:00,
2013-10-29 21:58:00,49.3,45.2,30.17,SSE,157,0.0,2.0,86,0.00,,,0.00,WUHU21623XXSP,2013-10-30 02:58:00,
2013-10-29 22:03:00,49.3,45.5,30.17,SSE,157,0.0,2.0,87,0.00,,,0.00,WUHU21623XXSP,2013-10-30 03:03:00,
2013-10-29 22:08:00,49.3,45.5,30.17,SSE,157,0.0,0.0,87,0.00,,,0.00,WUHU21623XXSP,2013-10-30 03:08:00,
2013-10-29 22:13:00,49.3,45.5,30.17,SSE,157,0.0,0.0,87,0.00,,,0.00,WUHU21623XXSP,2013-10-30 03:13:00,
2013-10-29 22:18:00,49.3,45.5,30.17,SSE,157,0.0,0.0,87,0.00,,,0.00,WUHU21623XXSP,2013-10-30 03:18:00,
2013-10-29 22:23:00,49.3,45.5,30.17,SSE,157,0.0,0.0,87,0.00,,,0.00,WUHU21623XXSP,2013-10-30 03:23:00,
2013-10-29 22:28:00,49.3,45.5,30.17,SSE,157,0.0,0.0,87,0.00,,,0.00,WUHU21623XXSP,2013-10-30 03:28:00,
2013-10-29 22:33:00,49.3,45.5,30.17,SSE,157,0.0,0.0,88,0.00,,,0.00,WUHU21623XXSP,2013-10-30 03:33:00,
2013-10-29 22:38:00,49.3,45.8,30.17,SSE,157,0.0,0.0,88,0.00,,,0.00,WUHU21623XXSP,2013-10-30 03:38:00,
2013-10-29 22:43:00,49.3,45.8,30.16,SSE,157,0.0,0.0,88,0.00,,,0.00,WUHU21623XXSP,2013-10-30 03:43:00,
2013-10-29 22:48:00,49.3,45.8,30.16,SSE,157,0.0,0.0,88,0.00,,,0.00,WUHU21623XXSP,2013-10-30 03:48:00,
2013-10-29 22:53:00,49.3,45.8,30.16,SSE,157,0.0,0.0,88,0.00,,,0.00,WUHU21623XXSP,2013-10-30 03:53:00,
2013-10-29 22:58:00,49.3,45.8,30.16,SSE,157,0.0,0.0,88,0.00,,,0.00,WUHU21623XXSP,2013-10-30 03:58:00,
2013-10-29 23:01:00,49.3,45.8,30.16,SSE,157,0.0,0.0,88,0.00,,,0.00,WUHU21623XXSP,2013-10-30 04:01:00,
2013-10-29 23:02:00,49.3,45.8,30.16,SSE,157,0.0,0.0,88,0.00,,,0.00,WUHU21623XXSP,2013-10-30 04:02:00,
2013-10-29 23:07:00,49.3,45.8,30.16,SSE,157,0.0,0.0,88,0.00,,,0.00,WUHU21623XXSP,2013-10-30 04:07:00,
2013-10-29 23:12:00,49.3,45.8,30.15,SSE,157,0.0,0.0,88,0.00,,,0.00,WUHU21623XXSP,2013-10-30 04:12:00,
2013-10-29 23:17:00,49.3,45.8,30.15,SSE,157,0.0,0.0,88,0.00,,,0.00,WUHU21623XXSP,2013-10-30 04:17:00,
2013-10-29 23:22:00,49.1,45.7,30.15,SSE,157,0.0,0.0,88,0.00,,,0.00,WUHU21623XXSP,2013-10-30 04:22:00,
2013-10-29 23:27:00,49.1,45.7,30.15,SSE,157,0.0,0.0,88,0.00,,,0.00,WUHU21623XXSP,2013-10-30 04:27:00,
2013-10-29 23:32:00,49.1,45.7,30.15,SSE,157,0.0,0.0,88,0.00,,,0.00,WUHU21623XXSP,2013-10-30 04:32:00,
2013-10-29 23:37:00,49.1,45.7,30.15,SSE,157,0.0,0.0,88,0.00,,,0.00,WUHU21623XXSP,2013-10-30 04:37:00,
2013-10-29 23:42:00,49.1,45.7,30.15,SSE,157,0.0,0.0,88,0.00,,,0.00,WUHU21623XXSP,2013-10-30 04:42:00,
2013-10-29 23:47:00,48.9,45.5,30.15,SSE,157,0.0,0.0,88,0.00,,,0.00,WUHU21623XXSP,2013-10-30 04:47:00,
2013-10-29 23:52:00,48.9,45.5,30.14,SSE,157,0.0,0.0,88,0.00,,,0.00,WUHU21623XXSP,2013-10-30 04:52:00,
2013-10-29 23:57:00,48.7,45.3,30.14,SSE,157,0.0,0.0,88,0.00,,,0.00,WUHU21623XXSP,2013-10-30 04:57:00,